Location: Wald
(31.7579°N, 86.6655°W)
Time: 11:37:22
(UTC+00:00)

ATLAS 5 CENTAUR R/B - Pass Details

Date: 14 July 2020
Orbit: 534 x 1124 km, 63.4° (Epoch: 03 August)

Event Time Altitude Azimuth Distance (km) Brightness Sun altitude
Rises 10:09:23 0° 319° (NW) 3,510 5.3 -8.7°
Reaches altitude 10° 10:11:56 10° 311° (NW) 2,653 4.6 -8.2°
Maximum altitude 10:17:40 37° 246° (WSW) 1,533 3.1 -7.2°
Drops below altitude 10° 10:24:00 10° 182° (S) 2,933 4.7 -6.0°
Sets 10:26:59 0° 174° (S) 3,923 5.4 -5.5°
